Location: Crescent
(42.8242°N, 73.7329°W)
Time: 05:02:19
(UTC+00:00)

Explorer 7 - Pass Details

Date: 16 February 2026
Orbit: 430 x 542 km, 50.2° (Epoch: 5 March)

Event Time Altitude Azimuth Distance (km) Brightness Sun altitude
Rises 23:40:06 0° 293° (WNW) 2,509 11.4 -13.8°
Reaches altitude 10° 23:42:27 10° 306° (NW) 1,654 10.0 -14.3°
Maximum altitude 23:45:41 27° 6° (N) 985 8.0 -14.9°
Enters shadow 23:47:15 20° 44° (NE) 1,191 8.1 -15.1°
Drops below altitude 10° 23:49:01 10° 65° (ENE) 1,714 - -15.5°
Sets 23:51:30 0° 78° (ENE) 2,621 - -15.9°
